Content
SEND FEEDBACK

Daily
Averages
Monthly
Summary
United States of America

SHUNGNAK, ALASKA


Home > North America > United States > Alaska
Elevation: 4 meters     Latitude: 66 54N     Longitude: 156 52W

WEATHER
 
SELECT A DAY
Number of Records: 410,820;   Date Range: 1/1/95 - 8/30/14
 
SHARE

PRINT THIS DATA

[ ← Previous Day ]
WEATHER ALMANAC - 31 JANUARY, 2013
[ Next Day → ]
[ °F ]   °C
Weather ElementAverageHighLow
Temperature-15.7 °C-14 °C (9:56 pm)-16 °C (12:36 am)
Dewpoint-19.2 °C-17 °C (10:16 pm)-21 °C (1:16 am)
Humidity74.6 %79 % (10:16 pm)66 % (1:16 am)
Barometer1011.2 hPa1016.9 hPa (11:56 pm)1007.1 hPa (12:36 am)
Wind Speed10.6 km/h18.5 km/h (8:36 am)
Wind Gust29.6 km/h (8:56 am)
Weather ElementAverage
Visibility10 km
Wind DirectionNNE (38.8 °)

Weather ElementTotal
Precipitation---
Heating Degree Days33.3 (Base 18.3)
Averaged from 69 records on 31 January, 2013
WEATHER CONDITIONS BREAKOUT
WIND DIRECTION BREAKOUT
WEATHER BY HOUR - 31 JANUARY, 2013
[ °F ]   °C
Local TimeTemperatureDewpointHumidityBarometerVisibilityWind DirectionWind SpeedGust SpeedPrecipitationEventsConditions
12:36 AM-16 °C-19 °C78 %1007.1 hPa6.4 kmNE (40°)13 km/h25.9 km/hOvercast
12:56 AM-16 °C-19 °C78 %1007.1 hPa8 kmNNE (30°)13 km/hOvercast
1:16 AM-16 °C-21 °C66 %1007.1 hPa16.1 kmNNE (20°)13 km/hOvercast
1:36 AM-16 °C-21 °C66 %1007.1 hPa16.1 kmNE (40°)14.8 km/hOvercast
1:56 AM-16 °C-20 °C72 %1007.1 hPa16.1 kmNNE (30°)16.7 km/hOvercast
2:16 AM-16 °C-21 °C66 %1007.1 hPa8 kmNE (40°)14.8 km/hOvercast
2:36 AM-16 °C-21 °C66 %1007.5 hPa11.3 kmNE (40°)13 km/hOvercast
2:56 AM-16 °C-20 °C72 %1007.5 hPa8 kmNE (40°)13 km/hOvercast
3:16 AM-16 °C-20 °C72 %1007.5 hPa8 kmNNE (30°)13 km/hOvercast
3:36 AM-16 °C-21 °C66 %1007.8 hPa8 kmNE (40°)13 km/hOvercast
3:56 AM-16 °C-20 °C72 %1007.8 hPa4 kmNE (40°)9.3 km/hOvercast
4:16 AM-16 °C-19 °C78 %1007.8 hPa4.8 kmNE (40°)13 km/hOvercast
4:36 AM-16 °C-20 °C72 %1007.8 hPa8 kmNNE (30°)16.7 km/hOvercast
4:56 AM-16 °C-20 °C72 %1008.1 hPa16.1 kmNNE (30°)11.1 km/hOvercast
5:16 AM-16 °C-20 °C72 %1008.1 hPa8 kmNE (40°)13 km/hOvercast
5:36 AM-16 °C-21 °C66 %1008.1 hPa16.1 kmNE (40°)13 km/hOvercast
5:56 AM-16 °C-20 °C72 %1008.1 hPa12.9 kmNE (40°)11.1 km/hOvercast
6:16 AM-16 °C-21 °C66 %1008.5 hPa4.8 kmNE (40°)9.3 km/hOvercast
6:36 AM-16 °C-20 °C72 %1008.5 hPa3.2 kmNNE (30°)9.3 km/hOvercast
6:56 AM-16 °C-19 °C78 %1008.8 hPa4.8 kmNE (40°)11.1 km/hOvercast
7:16 AM-16 °C-19 °C78 %1008.5 hPa4 kmNE (50°)11.1 km/hOvercast
7:36 AM-16 °C-19 °C78 %1008.8 hPa8 kmNE (50°)13 km/hOvercast
7:56 AM-16 °C-19 °C78 %1008.8 hPa16.1 kmNE (50°)13 km/hOvercast
8:16 AM-16 °C-19 °C78 %1008.8 hPa16.1 kmNE (40°)13 km/hOvercast
8:36 AM-16 °C-20 °C72 %1009.1 hPa16.1 kmNNE (30°)18.5 km/hOvercast
8:56 AM-16 °C-20 °C72 %1009.1 hPa16.1 kmNE (40°)13 km/h29.6 km/hOvercast
9:16 AM-16 °C-20 °C72 %1009.5 hPa16.1 kmNNE (30°)13 km/hOvercast
9:36 AM-16 °C-21 °C66 %1009.8 hPa16.1 kmNNE (30°)13 km/hOvercast
9:56 AM-16 °C-20 °C72 %1010.2 hPa16.1 kmENE (60°)9.3 km/hOvercast
10:16 AM-16 °C-20 °C72 %1010.5 hPa16.1 kmNE (50°)11.1 km/hOvercast
10:36 AM-16 °C-19 °C78 %1010.5 hPa8 kmNE (50°)14.8 km/hOvercast
10:56 AM-16 °C-20 °C72 %1010.5 hPa4.8 kmNE (50°)13 km/hOvercast
11:16 AM-16 °C-19 °C78 %1010.8 hPa4.8 kmNE (50°)11.1 km/hOvercast
11:36 AM-16 °C-19 °C78 %1010.8 hPa6.4 kmNE (50°)13 km/hOvercast
11:56 AM-16 °C-19 °C78 %1011.2 hPa6.4 kmNE (50°)13 km/hOvercast
12:16 PM-16 °C-19 °C78 %1011.5 hPa4.8 kmNE (50°)11.1 km/hOvercast
12:36 PM-16 °C-19 °C78 %1011.5 hPa4.8 kmNE (40°)13 km/hOvercast
12:56 PM-16 °C-19 °C78 %1011.9 hPa6.4 kmNE (40°)13 km/hOvercast
1:16 PM-16 °C-19 °C78 %1012.2 hPa14.5 kmNE (50°)9.3 km/hOvercast
1:36 PM-16 °C-19 °C78 %1012.2 hPa4 kmNE (40°)11.1 km/hOvercast
1:56 PM-16 °C-19 °C78 %1012.2 hPa6.4 kmNE (40°)13 km/hOvercast
2:16 PM-16 °C-19 °C78 %1012.5 hPa8 kmNE (40°)9.3 km/hMostly Cloudy
2:36 PM-16 °C-19 °C78 %1012.5 hPa16.1 kmNE (40°)9.3 km/hOvercast
2:56 PM-15 °C-19 °C72 %1012.5 hPa6.4 kmNNE (30°)9.3 km/hOvercast
3:16 PM-15 °C-19 °C72 %1012.9 hPa14.5 kmNNE (30°)9.3 km/hOvercast
3:36 PM-15 °C-19 °C72 %1012.9 hPa8 kmNE (50°)9.3 km/hOvercast
3:56 PM-15 °C-19 °C72 %1013.2 hPa4.8 kmNE (40°)9.3 km/hOvercast
4:16 PM-16 °C-19 °C78 %1013.2 hPa9.7 kmNE (40°)7.4 km/hOvercast
4:36 PM-16 °C-19 °C78 %1013.2 hPa16.1 kmNE (40°)9.3 km/hOvercast
5:16 PM-16 °C-19 °C78 %1013.5 hPa16.1 kmNE (50°)9.3 km/hOvercast
5:36 PM-16 °C-19 °C78 %1013.2 hPa12.9 kmNE (50°)9.3 km/hOvercast
6:16 PM-16 °C-19 °C78 %1013.9 hPa16.1 kmNE (40°)13 km/hOvercast
6:36 PM-16 °C-19 °C78 %1013.9 hPa16.1 kmNE (40°)11.1 km/hOvercast
6:56 PM-16 °C-19 °C78 %1013.9 hPa16.1 kmNE (40°)7.4 km/hOvercast
7:16 PM-16 °C-19 °C78 %1014.2 hPa16.1 kmNE (40°)9.3 km/hOvercast
7:36 PM-16 °C-19 °C78 %1013.5 hPa16.1 kmNE (40°)13 km/hOvercast
7:56 PM-16 °C-19 °C78 %1014.2 hPa16.1 kmNE (50°)7.4 km/hOvercast
8:16 PM-15 °C-19 °C72 %1014.6 hPa8 kmNNE (30°)7.4 km/hOvercast
8:36 PM-15 °C-19 °C72 %1014.9 hPa12.9 kmNE (40°)7.4 km/hMostly Cloudy
8:56 PM-15 °C-18 °C78 %1014.9 hPa8 kmNE (40°)7.4 km/hOvercast
9:16 PM-15 °C-18 °C78 %1015.2 hPa4.8 kmNE (50°)7.4 km/hOvercast
9:36 PM-15 °C-18 °C78 %1015.2 hPa4.8 kmNE (40°)5.6 km/hOvercast
9:56 PM-14 °C-18 °C72 %1015.6 hPa4.8 kmNNE (30°)5.6 km/hOvercast
10:16 PM-14 °C-17 °C79 %1015.9 hPa4 kmNNE (30°)7.4 km/hOvercast
10:36 PM-14 °C-18 °C72 %1015.9 hPa4 kmNNE (30°)5.6 km/hOvercast
10:56 PM-14 °C-18 °C72 %1016.3 hPa4 kmCalmOvercast
11:16 PM-14 °C-17 °C79 %1016.6 hPa6.4 kmCalmOvercast
11:36 PM-14 °C-17 °C79 %1016.6 hPa8 kmNNE (30°)7.4 km/hOvercast
11:56 PM-14 °C-17 °C79 %1016.9 hPa4.8 kmNE (40°)5.6 km/hOvercast
Hourly data recorded from PAFM, located 0 kilometers away from Shungnak, Alaska







STORIES FROM OUR PARTNERS